[[{"header":{"parameterUnit":"m.s-1","parameterCategory":2,"la1":30.2991,"la2":30.254,"lo1":-89.0895,"lo2":-89.0444,"dy":0.0017,"dx":0.0017,"nx":28,"ny":28,"refTime":"2025-07-23T03:00:00:Z","depth":"0","parameterNumber":2,"parameterNumberName":"U-component_of_CURRENTS"},"data":[0,0,0,0,0,0,0,0,0,0,0,0,0,0,0,0,0,0,0,0,0,0,0,0,0,0,0,0,0,0,0,0,0,0,0,0,0,0,0,0,0,0,0,0,0,0,0,0,0,0,0,0,0,0,0,0,0,0,0.3788,0.3789,0,0.3838,0.3838,0.3838,0.3815,0.3814,0.3814,0.3813,0.3762,0.3761,0.376,0,0,0,0,0,0,0,0,0,0,0,0,0,0.3676,0.3678,0.3788,0.3789,0.3791,0.3838,0.3838,0.3838,0.3815,0.3814,0.3814,0.3813,0.3762,0.3761,0.376,0,0,0,0,0,0,0,0,0,0,0,0,0,0.372,0.3678,0.3788,0.3789,0.379,0.3838,0.3838,0.3838,0.3815,0.3814,0.3813,0.3812,0.3762,0.3761,0.376,0.3774,0,0,0.3757,0.3756,0,0,0,0,0,0,0,0,0.3717,0.3723,0.3788,0.3789,0.3791,0.3824,0.378,0.3814,0.3816,0.38,0.3813,0.3812,0.3778,0.3776,0.378,0.3772,0.377,0.3757,0.3756,0.3756,0.3755,0,0,0,0,0,0,0,0.3714,0.3721,0.3802,0.3789,0.3791,0.3789,0.3793,0.3786,0.3788,0.3801,0.3801,0.3816,0.3777,0.3781,0.3779,0.3769,0.3757,0.3756,0.3755,0.3755,0.3827,0.3829,0,0,0,0,0,0,0.3722,0.3718,0.38,0.3804,0.3757,0.3792,0.3796,0.381,0.379,0.3788,0.3817,0.3815,0.3784,0.378,0.3777,0.3853,0.3756,0.3755,0.3754,0.3824,0.3827,0.383,0,0,0,0,0,0,0.3719,0.3728,0.3799,0.3767,0.3776,0.3796,0.381,0.3812,0.3827,0.3804,0.3799,0.3833,0.3783,0.3778,0.3789,0.3848,0.3754,0.3753,0.3821,0.3825,0.3829,0.3967,0,0,0,0,0,0,0.3715,0.3727,0.3736,0.3767,0.3779,0.3845,0.3812,0.3813,0.384,0.3838,0.3816,0.381,0.3782,0.3791,0.3788,0.3845,0.3752,0.3818,0.3823,0.3827,0.3959,0.3975,0.3989,0,0,0,0,0,0.3711,0.3728,0.3736,0.3746,0.3791,0.3848,0.3853,0.3858,0.3842,0.3864,0.3847,0.3811,0.382,0.3792,0.3788,0.3846,0.3816,0.3822,0.3827,0.3953,0.3972,0.3989,0,0,0,0,0,0,0.3676,0.3729,0.3737,0.3767,0.3815,0.3846,0.3862,0.3872,0.3878,0.3866,0.3835,0.3829,0.3867,0.3835,0.3806,0.3882,0.3816,0.3821,0.3913,0.3931,0.3945,0.3991,0.3751,0,0,0,0,0,0.3678,0.3704,0.376,0.3784,0.381,0.384,0.3861,0.3874,0.3888,0.389,0.3879,0.3871,0.3889,0.389,0.389,0.3923,0.4,0.3961,0.3976,0.3989,0.4025,0.4204,0.424,0.3849,0.3849,0.3849,0,0,0.3668,0.3703,0.3715,0.378,0.3807,0.3873,0.3848,0.3892,0.3947,0.3882,0.393,0.392,0.3909,0.3955,0.397,0.3934,0.4146,0.3996,0.4007,0.4037,0.4215,0.4253,0.4288,0.3853,0.3852,0.3852,0,0,0.3686,0.37,0.3742,0.3791,0.3856,0.3889,0.3911,0.396,0.3978,0.4025,0.4006,0.4046,0.4038,0.4075,0.4084,0.4184,0.422,0.4165,0.4277,0.445,0.4486,0.4517,0.4695,0.4742,0.4171,0.4171,0.4171,0,0.3675,0.3744,0.3763,0.383,0.3878,0.3907,0.3979,0.4016,0.4061,0.4097,0.4052,0.413,0.4114,0.4222,0.4253,0.4224,0.4325,0.4208,0.4476,0.4508,0.4538,0.4713,0.4763,0.4178,0.4177,0.4177,0.4176,0,0.3744,0.3803,0.3832,0.3931,0.3979,0.4045,0.411,0.4161,0.4178,0.4219,0.4311,0.431,0.4365,0.4368,0.4335,0.4533,0.4539,0.448,0.444,0.4587,0.4761,0.481,0.4189,0.4186,0.4184,0.4182,0,0,0.3731,0.3857,0.3872,0.3941,0.4041,0.4095,0.4191,0.4304,0.4374,0.4423,0.4527,0.4585,0.459,0.4606,0.4591,0.4727,0.5024,0.4697,0.4702,0.4892,0.5442,0.5373,0.542,0.5017,0.5026,0.5032,0.549,0,0.3794,0.3921,0.3973,0.4109,0.4188,0.4249,0.4333,0.4426,0.4482,0.4582,0.4644,0.4712,0.468,0.4697,0.4853,0.4961,0.5155,0.4908,0.5255,0.5267,0.5202,0.5475,0.5276,0.566,0.5538,0.5546,0.5552,0,0.3872,0.3947,0.4073,0.4213,0.425,0.4327,0.4468,0.4547,0.4686,0.4722,0.4837,0.4863,0.5068,0.4987,0.5374,0.5219,0.5372,0.5464,0.5483,0.5407,0.529,0.5485,0.5754,0.5525,0.5628,0.5621,0.5616,0,0.3879,0.4033,0.4132,0.4181,0.4329,0.4394,0.4466,0.4588,0.4674,0.4811,0.4901,0.5096,0.5227,0.5446,0.5645,0.5539,0.6069,0.5939,0.6052,0.6049,0.5943,0.5915,0.6044,0.628,0.6279,0.6277,0.6276,0,0.3956,0.4053,0.4141,0.4203,0.4311,0.4398,0.4511,0.4602,0.475,0.489,0.4976,0.5148,0.5357,0.5641,0.578,0.6111,0.6217,0.617,0.6197,0.5983,0.5954,0.579,0.5654,0.6295,0.6291,0.6287,0.6284,0,0.4016,0.4063,0.4183,0.4299,0.4323,0.44,0.4528,0.4655,0.4759,0.4957,0.5016,0.5298,0.5653,0.588,0.6262,0.6315,0.6409,0.6661,0.6395,0.6379,0.6158,0.6037,0.609,0.5921,0.6865,0.6866,0.6868,0,0.41,0.4147,0.4219,0.4289,0.4356,0.4445,0.4542,0.4635,0.4768,0.506,0.5206,0.5565,0.5834,0.6367,0.6507,0.6807,0.6554,0.6759,0.65,0.6212,0.61,0.5827,0.5657,0.645,0.6447,0.6446,0.6444,0,0.4275,0.4253,0.4347,0.4404,0.4499,0.4563,0.469,0.4766,0.4929,0.5111,0.5414,0.5637,0.6107,0.6307,0.664,0.6762,0.6379,0.6726,0.6524,0.59,0.5525,0.5347,0.6077,0.6428,0.6429,0.6431,0.6431,0.6432,0.4433,0.4476,0.4531,0.4591,0.4657,0.4694,0.472,0.4871,0.5013,0.5242,0.5493,0.5749,0.6023,0.6444,0.652,0.6399,0.6342,0.6217,0.6147,0.5937,0.5591,0.6283,0.6563,0.6565,0.6567,0.6569,0.657,0,0.4645,0.4658,0.474,0.4755,0.4794,0.4778,0.486,0.4869,0.4986,0.5231,0.5446,0.5644,0.5856,0.5994,0.6019,0.5832,0.5576,0.5661,0.5218,0.5118,0.5864,0.5649,0.5623,0.5623,0.5623,0.5623,0.5624,0.5624,0.4787,0.4866,0.4828,0.4869,0.4869,0.4832,0.4834,0.4836,0.4927,0.5006,0.5064,0.5203,0.5392,0.5568,0.5402,0.5293,0.4836,0.4701,0.4637,0.5111,0.5153,0.5193,0.4959,0.4788,0.4787,0.37,0.3691,0.3685]},{"header":{"parameterUnit":"m.s-1","parameterCategory":2,"la1":30.2991,"la2":30.254,"lo1":-89.0895,"lo2":-89.0444,"dy":0.0017,"dx":0.0017,"nx":28,"ny":28,"refTime":"2025-07-23T03:00:00:Z","depth":"0","parameterNumber":3,"parameterNumberName":"V-component_of_CURRENTS"},"data":[0,0,0,0,0,0,0,0,0,0,0,0,0,0,0,0,0,0,0,0,0,0,0,0,0,0,0,0,0,0,0,0,0,0,0,0,0,0,0,0,0,0,0,0,0,0,0,0,0,0,0,0,0,0,0,0,0,0,-0.1127,-0.1128,0,-0.1191,-0.1191,-0.1192,-0.1229,-0.1229,-0.1229,-0.1229,-0.1309,-0.1311,-0.1313,0,0,0,0,0,0,0,0,0,0,0,0,0,-0.1032,-0.1034,-0.1127,-0.1128,-0.1129,-0.119,-0.1191,-0.1192,-0.1229,-0.1229,-0.1229,-0.1229,-0.1308,-0.1311,-0.1313,0,0,0,0,0,0,0,0,0,0,0,0,0,-0.1083,-0.1034,-0.1127,-0.1154,-0.1157,-0.119,-0.1191,-0.1193,-0.1229,-0.1229,-0.1229,-0.1229,-0.1308,-0.1311,-0.1314,-0.1331,0,0,-0.1323,-0.1324,0,0,0,0,0,0,0,0,-0.108,-0.1087,-0.1149,-0.1152,-0.1155,-0.1201,-0.1187,-0.1239,-0.1229,-0.1203,-0.1229,-0.1229,-0.1274,-0.128,-0.1292,-0.1335,-0.1338,-0.1323,-0.1325,-0.1327,-0.1327,0,0,0,0,0,0,0,-0.1077,-0.1084,-0.1153,-0.115,-0.1154,-0.116,-0.1168,-0.1197,-0.1238,-0.1205,-0.1207,-0.1213,-0.1276,-0.1289,-0.1295,-0.1339,-0.1323,-0.1326,-0.1328,-0.1329,-0.1387,-0.1387,0,0,0,0,0,0,-0.1067,-0.1081,-0.1151,-0.1155,-0.1116,-0.1162,-0.117,-0.1187,-0.1237,-0.1245,-0.1213,-0.1214,-0.1284,-0.1291,-0.1298,-0.1286,-0.1327,-0.1329,-0.1331,-0.1387,-0.1387,-0.1386,0,0,0,0,0,0,-0.1065,-0.1074,-0.1149,-0.1118,-0.1128,-0.1163,-0.1182,-0.1188,-0.1198,-0.1243,-0.1251,-0.1215,-0.1284,-0.1293,-0.1317,-0.1291,-0.1331,-0.1334,-0.1388,-0.1387,-0.1387,-0.1286,0,0,0,0,0,0,-0.1063,-0.1073,-0.1077,-0.1118,-0.1129,-0.1154,-0.1182,-0.1189,-0.1201,-0.1204,-0.1248,-0.1256,-0.1285,-0.1312,-0.132,-0.1296,-0.1336,-0.1388,-0.1387,-0.1387,-0.129,-0.1283,-0.1276,0,0,0,0,0,-0.1059,-0.1056,-0.1077,-0.1085,-0.1136,-0.1153,-0.1159,-0.1185,-0.1201,-0.1196,-0.1231,-0.1254,-0.1313,-0.1314,-0.1323,-0.13,-0.1388,-0.1388,-0.1387,-0.1293,-0.1284,-0.1276,0,0,0,0,0,0,-0.1009,-0.1061,-0.1085,-0.1097,-0.1119,-0.1159,-0.1155,-0.118,-0.1204,-0.1206,-0.1253,-0.1263,-0.1275,-0.1307,-0.1306,-0.1317,-0.1354,-0.1355,-0.1279,-0.1271,-0.1264,-0.1209,-0.1339,0,0,0,0,0,-0.1004,-0.1021,-0.1064,-0.1072,-0.108,-0.1119,-0.1128,-0.1148,-0.1177,-0.1188,-0.1221,-0.1255,-0.128,-0.129,-0.1322,-0.1327,-0.1277,-0.132,-0.1312,-0.1306,-0.1269,-0.1167,-0.1145,-0.1384,-0.1384,-0.1384,0,0,-0.0985,-0.1016,-0.1025,-0.1063,-0.1082,-0.1078,-0.1124,-0.1131,-0.1127,-0.1193,-0.1195,-0.1235,-0.128,-0.1285,-0.1292,-0.1305,-0.1213,-0.1305,-0.1299,-0.1265,-0.1163,-0.1139,-0.1118,-0.1384,-0.1384,-0.1384,0,0,-0.0943,-0.0984,-0.0977,-0.0992,-0.1018,-0.1043,-0.1042,-0.1079,-0.1092,-0.1109,-0.115,-0.1161,-0.1218,-0.1222,-0.1238,-0.121,-0.1183,-0.1239,-0.1149,-0.1051,-0.1028,-0.1008,-0.0902,-0.0873,-0.1229,-0.1228,-0.1228,0,-0.0914,-0.092,-0.0973,-0.0962,-0.0955,-0.1021,-0.0991,-0.1021,-0.106,-0.105,-0.1096,-0.1126,-0.1175,-0.1143,-0.1146,-0.1186,-0.1125,-0.1175,-0.1034,-0.1014,-0.0994,-0.089,-0.086,-0.1224,-0.1224,-0.1225,-0.1225,0,-0.0864,-0.0865,-0.0856,-0.087,-0.087,-0.0858,-0.0896,-0.0905,-0.0939,-0.0957,-0.0945,-0.1004,-0.1003,-0.1039,-0.1091,-0.0993,-0.099,-0.1037,-0.104,-0.0963,-0.086,-0.083,-0.1217,-0.1218,-0.122,-0.1221,0,0,-0.0792,-0.0817,-0.0809,-0.0792,-0.0815,-0.0805,-0.0797,-0.0789,-0.0743,-0.0808,-0.0736,-0.081,-0.0826,-0.0843,-0.0898,-0.0837,-0.0673,-0.0877,-0.0874,-0.0743,-0.0426,-0.0488,-0.0461,-0.0686,-0.0681,-0.0677,-0.0402,0,-0.0727,-0.0685,-0.0714,-0.0659,-0.063,-0.0672,-0.064,-0.0642,-0.0652,-0.0607,-0.0661,-0.063,-0.0757,-0.0736,-0.0697,-0.0674,-0.059,-0.0741,-0.0545,-0.0539,-0.0579,-0.0428,-0.0454,-0.0217,-0.0373,-0.0367,-0.0364,0,-0.0645,-0.0632,-0.0564,-0.0532,-0.0518,-0.049,-0.0422,-0.0416,-0.0388,-0.0389,-0.0373,-0.0402,-0.0346,-0.0465,-0.0336,-0.0422,-0.0404,-0.0397,-0.0386,-0.0451,-0.0544,-0.0326,-0.0156,-0.0493,-0.0317,-0.0321,-0.0324,0,-0.0534,-0.0514,-0.0453,-0.0444,-0.0424,-0.0382,-0.0372,-0.0329,-0.027,-0.0234,-0.0142,-0.0134,-0.0058,-0.0054,-0.0074,-0.017,0.009,-0.0037,-0.0066,-0.007,-0.0056,-0.0069,-0.016,0.0095,0.0095,0.0094,0.0093,0,-0.0429,-0.0369,-0.0397,-0.0356,-0.0248,-0.0281,-0.015,-0.0144,-0.0068,0.0087,-0.0009,0.016,0.0058,0.0162,0.0078,0.0133,0.0229,0.0015,0.0018,-0.0028,-0.0041,-0.031,-0.0507,0.0104,0.0102,0.01,0.0098,0,-0.0259,-0.0302,-0.0221,-0.0204,-0.0186,-0.0103,-0.0012,0.0098,0.0129,0.0343,0.038,0.0459,0.0605,0.0511,0.0574,0.0388,0.0238,0.0382,0.0328,0.0316,-0.0122,-0.031,-0.03,-0.0426,0.0399,0.04,0.04,0,-0.0137,-0.01,-0.0076,-0.0013,0.0013,0.0103,0.0203,0.0205,0.0338,0.0574,0.0727,0.0897,0.1105,0.1119,0.0832,0.0716,0.0394,0.0512,0.0282,-0.0094,-0.0299,-0.0434,-0.0552,0.0365,0.0365,0.0365,0.0365,0,0.0102,0.0079,0.0142,0.024,0.033,0.0438,0.0565,0.0691,0.0775,0.0995,0.1339,0.1529,0.1514,0.1415,0.1119,0.0923,0.0229,0.0502,0.0161,-0.028,-0.0466,-0.0604,0.0117,0.0365,0.0365,0.0365,0.0365,0.0365,0.0311,0.0387,0.042,0.052,0.0631,0.0786,0.091,0.1098,0.1354,0.1734,0.1846,0.2231,0.1871,0.1489,0.1116,0.0276,0.0301,-0.0005,-0.0171,-0.0247,-0.0485,0.022,0.0404,0.0404,0.0404,0.0405,0.0405,0,0.0524,0.0569,0.07,0.08,0.0954,0.0944,0.1173,0.1334,0.1691,0.2154,0.2495,0.2601,0.2077,0.1419,0.0331,-0.0282,-0.0547,-0.0647,-0.0869,-0.0935,-0.0239,-0.0372,-0.0407,-0.0407,-0.0407,-0.0406,-0.0406,-0.0405,0.0646,0.0766,0.0781,0.1036,0.114,0.1338,0.1468,0.1768,0.2104,0.2708,0.3043,0.3261,0.2665,0.0686,-0.0705,-0.1028,-0.1491,-0.1544,-0.175,-0.1373,-0.1329,-0.1287,-0.1461,-0.1724,-0.1726,-0.2389,-0.2396,-0.2402]}],[{"header":{"parameterUnit":"m.s-1","parameterCategory":2,"la1":30.2991,"la2":30.254,"lo1":-89.0895,"lo2":-89.0444,"dy":0.0017,"dx":0.0017,"nx":28,"ny":28,"refTime":"2025-07-23T03:00:00:Z","depth":"2","parameterNumber":2,"parameterNumberName":"U-component_of_CURRENTS"},"data":[0,0,0,0,0,0,0,0,0,0,0,0,0,0,0,0,0,0,0,0,0,0,0,0,0,0,0,0,0,0,0,0,0,0,0,0,0,0,0,0,0,0,0,0,0,0,0,0,0,0,0,0,0,0,0,0,0,0,0.2808,0.2808,0,0.2907,0.2909,0.291,0.3023,0.3024,0.3025,0.3026,0.3047,0.3047,0.3047,0,0,0,0,0,0,0,0,0,0,0,0,0,0.28,0.28,0.2808,0.2808,0.2809,0.2907,0.2909,0.2911,0.3023,0.3024,0.3026,0.3027,0.3048,0.3047,0.3047,0,0,0,0,0,0,0,0,0,0,0,0,0,0.2848,0.28,0.2808,0.2871,0.2878,0.2906,0.2909,0.2911,0.3023,0.3024,0.3026,0.3027,0.3048,0.3047,0.3047,0.3013,0,0,0.3045,0.3045,0,0,0,0,0,0,0,0,0.2845,0.285,0.2861,0.2867,0.2874,0.2948,0.2914,0.2939,0.3022,0.2975,0.3026,0.3028,0.3001,0.3004,0.3031,0.3014,0.3015,0.3045,0.3044,0.3044,0.3044,0,0,0,0,0,0,0,0.2842,0.2846,0.2855,0.2862,0.2869,0.2923,0.2932,0.292,0.2983,0.298,0.2986,0.2985,0.3005,0.3032,0.3032,0.3015,0.3045,0.3044,0.3044,0.3044,0.3114,0.3116,0,0,0,0,0,0,0.2808,0.2842,0.2851,0.2857,0.2855,0.2921,0.2931,0.2929,0.2985,0.2993,0.2984,0.299,0.3032,0.3033,0.3033,0.3137,0.3044,0.3044,0.3043,0.3112,0.3114,0.3117,0,0,0,0,0,0,0.2808,0.2808,0.2847,0.2847,0.2854,0.2918,0.2915,0.293,0.2981,0.2987,0.2996,0.3022,0.3033,0.3034,0.3064,0.3132,0.3043,0.3043,0.3109,0.3112,0.3116,0.3252,0,0,0,0,0,0,0.2807,0.2807,0.2827,0.2844,0.2853,0.2903,0.2914,0.293,0.2973,0.2983,0.3022,0.3025,0.3034,0.3065,0.3064,0.313,0.3042,0.3106,0.3111,0.3114,0.3245,0.326,0.3273,0,0,0,0,0,0.2807,0.2826,0.2827,0.2829,0.2866,0.2904,0.2917,0.2972,0.2973,0.3019,0.3039,0.3025,0.3091,0.3066,0.3064,0.3132,0.3104,0.3109,0.3114,0.3239,0.3257,0.3272,0,0,0,0,0,0,0.2787,0.2838,0.2841,0.286,0.2892,0.2922,0.2963,0.2976,0.3029,0.3036,0.3038,0.3044,0.3108,0.3083,0.3055,0.3164,0.31,0.3105,0.3196,0.3213,0.3226,0.3249,0.3042,0,0,0,0,0,0.2793,0.2854,0.2867,0.2884,0.29,0.2927,0.2955,0.2983,0.301,0.3038,0.3064,0.3086,0.312,0.3136,0.3161,0.3195,0.322,0.324,0.3254,0.3266,0.3283,0.3368,0.3393,0.3133,0.3133,0.3133,0,0,0.2774,0.2819,0.2841,0.2891,0.2916,0.2966,0.2953,0.2996,0.3045,0.3023,0.311,0.3133,0.314,0.3213,0.3237,0.3204,0.3362,0.3272,0.3283,0.3294,0.3376,0.3402,0.3425,0.3136,0.3136,0.3135,0,0,0.2783,0.2814,0.2873,0.2913,0.2967,0.3004,0.3016,0.3061,0.31,0.3153,0.3173,0.3248,0.3262,0.3331,0.3348,0.344,0.3434,0.343,0.3518,0.3601,0.3624,0.3644,0.3749,0.3778,0.3434,0.3434,0.3435,0,0.2762,0.2832,0.2888,0.2948,0.2991,0.3021,0.3072,0.3114,0.3171,0.3202,0.3196,0.3314,0.3337,0.3446,0.3499,0.3481,0.3512,0.3457,0.3623,0.3642,0.3661,0.3763,0.3793,0.3442,0.3441,0.344,0.3439,0,0.2815,0.2874,0.2904,0.3017,0.3074,0.3122,0.3174,0.3236,0.3273,0.3311,0.3418,0.3474,0.3558,0.3578,0.3566,0.3713,0.3692,0.3636,0.3586,0.3696,0.3797,0.3825,0.3452,0.3449,0.3447,0.3445,0,0,0.2761,0.2919,0.2931,0.2993,0.3117,0.316,0.3254,0.3347,0.3426,0.3482,0.3618,0.3685,0.3729,0.3754,0.3779,0.3847,0.4036,0.3796,0.3797,0.3912,0.4234,0.4117,0.4137,0.399,0.3994,0.3998,0.4268,0,0.2788,0.2914,0.3,0.3115,0.318,0.326,0.3363,0.3448,0.3529,0.3679,0.3738,0.3886,0.3788,0.3894,0.3937,0.4022,0.4108,0.3969,0.41,0.4106,0.3996,0.4164,0.3804,0.4003,0.4295,0.43,0.4303,0,0.2817,0.2916,0.3037,0.3194,0.3229,0.3315,0.3496,0.3583,0.3764,0.3846,0.3968,0.4049,0.4217,0.4134,0.4282,0.4186,0.423,0.4263,0.4273,0.4131,0.404,0.3931,0.4043,0.435,0.4346,0.4343,0.434,0,0.2788,0.2932,0.3046,0.3095,0.3286,0.3358,0.346,0.3626,0.3736,0.3998,0.4131,0.4285,0.4439,0.4477,0.4496,0.4434,0.4641,0.4577,0.4514,0.4508,0.4212,0.417,0.4709,0.4708,0.4708,0.4707,0.4706,0,0.2809,0.2901,0.3037,0.3107,0.3261,0.3362,0.3544,0.3674,0.3898,0.4052,0.4221,0.437,0.4524,0.4628,0.4613,0.4634,0.4732,0.4584,0.4581,0.4251,0.4211,0.4491,0.4462,0.4717,0.4715,0.4713,0.4711,0,0.2798,0.2898,0.3027,0.3198,0.3266,0.3369,0.3599,0.3705,0.3918,0.415,0.4268,0.4518,0.4678,0.4761,0.4913,0.4801,0.4842,0.4817,0.4433,0.4378,0.4648,0.4623,0.4867,0.4865,0.4864,0.4862,0.4861,0,0.2842,0.2898,0.3064,0.3144,0.3239,0.3398,0.3511,0.3732,0.3844,0.4166,0.4267,0.456,0.4668,0.4837,0.48,0.4841,0.4884,0.4509,0.433,0.4698,0.4671,0.4648,0.4625,0.4028,0.402,0.4014,0.4008,0,0.2905,0.2937,0.3027,0.3141,0.3264,0.3397,0.355,0.3652,0.3889,0.4021,0.4177,0.4305,0.4553,0.4459,0.4561,0.4491,0.4476,0.4384,0.4901,0.4013,0.3919,0.3888,0.3891,0.3952,0.3958,0.3962,0.3965,0.3967,0.2922,0.2958,0.301,0.3115,0.3248,0.3318,0.3356,0.3454,0.3561,0.3674,0.3922,0.3966,0.412,0.4104,0.3994,0.3953,0.4248,0.4049,0.4064,0.4087,0.3911,0.3816,0.3801,0.3805,0.3809,0.3813,0.3816,0,0.2844,0.2874,0.297,0.3048,0.3081,0.3205,0.3316,0.3222,0.3177,0.3383,0.3442,0.3244,0.3291,0.3468,0.3325,0.3334,0.3243,0.3212,0.3067,0.3128,0.3181,0.2952,0.2592,0.2588,0.2584,0.258,0,0,0.2796,0.2787,0.2804,0.2826,0.2892,0.286,0.2871,0.273,0.2781,0.2641,0.2701,0.307,0.3332,0.2892,0.2869,0.2716,0.2878,0.2607,0.3597,0.3485,0.3531,0.3687,0.3408,0,0,0,0,0]},{"header":{"parameterUnit":"m.s-1","parameterCategory":2,"la1":30.2991,"la2":30.254,"lo1":-89.0895,"lo2":-89.0444,"dy":0.0017,"dx":0.0017,"nx":28,"ny":28,"refTime":"2025-07-23T03:00:00:Z","depth":"2","parameterNumber":3,"parameterNumberName":"V-component_of_CURRENTS"},"data":[0,0,0,0,0,0,0,0,0,0,0,0,0,0,0,0,0,0,0,0,0,0,0,0,0,0,0,0,0,0,0,0,0,0,0,0,0,0,0,0,0,0,0,0,0,0,0,0,0,0,0,0,0,0,0,0,0,0,-0.0029,-0.0029,0,-0.011,-0.0111,-0.0113,-0.0236,-0.0238,-0.0239,-0.0241,-0.0359,-0.0361,-0.0362,0,0,0,0,0,0,0,0,0,0,0,0,0,-0.0064,-0.0063,-0.0029,-0.0029,-0.0029,-0.0109,-0.0111,-0.0113,-0.0236,-0.0238,-0.024,-0.0241,-0.0358,-0.036,-0.0362,0,0,0,0,0,0,0,0,0,0,0,0,0,-0.0094,-0.0063,-0.0029,-0.0095,-0.0101,-0.0109,-0.0111,-0.0114,-0.0236,-0.0238,-0.024,-0.0242,-0.0358,-0.036,-0.0363,-0.0334,0,0,-0.0371,-0.0372,0,0,0,0,0,0,0,0,-0.0092,-0.0094,-0.0085,-0.009,-0.0097,-0.0159,-0.0167,-0.0186,-0.0235,-0.0193,-0.0241,-0.0243,-0.0289,-0.0297,-0.0318,-0.0339,-0.0344,-0.0371,-0.0373,-0.0374,-0.0374,0,0,0,0,0,0,0,-0.009,-0.0091,-0.0069,-0.0085,-0.0092,-0.0148,-0.0155,-0.0172,-0.0234,-0.0197,-0.0204,-0.02,-0.0294,-0.0315,-0.0321,-0.0346,-0.0371,-0.0373,-0.0375,-0.0376,-0.0416,-0.0416,0,0,0,0,0,0,-0.0057,-0.0088,-0.0066,-0.007,-0.0092,-0.0145,-0.0153,-0.0143,-0.0233,-0.0246,-0.0198,-0.0205,-0.0309,-0.0318,-0.0326,-0.034,-0.0374,-0.0376,-0.0378,-0.0417,-0.0416,-0.0416,0,0,0,0,0,0,-0.0057,-0.0054,-0.0063,-0.0076,-0.008,-0.014,-0.0129,-0.0143,-0.0173,-0.0232,-0.0248,-0.0214,-0.0311,-0.0322,-0.0352,-0.0344,-0.0377,-0.038,-0.0417,-0.0417,-0.0416,-0.0339,0,0,0,0,0,0,-0.0058,-0.0054,-0.0054,-0.0073,-0.0078,-0.0064,-0.0126,-0.0143,-0.0163,-0.0174,-0.025,-0.0263,-0.0314,-0.0347,-0.0354,-0.0348,-0.0382,-0.0418,-0.0417,-0.0416,-0.0342,-0.0336,-0.033,0,0,0,0,0,-0.0059,-0.0035,-0.0053,-0.0051,-0.0069,-0.0062,-0.0071,-0.0128,-0.0161,-0.0166,-0.0224,-0.0262,-0.0347,-0.0349,-0.0357,-0.0351,-0.0419,-0.0417,-0.0416,-0.0345,-0.0337,-0.0331,0,0,0,0,0,0,-0.0028,-0.0045,-0.0066,-0.0043,-0.0052,-0.008,-0.0085,-0.0116,-0.0165,-0.0181,-0.0249,-0.0265,-0.0292,-0.0324,-0.0324,-0.0361,-0.039,-0.0391,-0.0333,-0.0326,-0.0321,-0.0284,-0.0384,0,0,0,0,0,-0.002,-0.003,-0.0032,-0.0018,-0.0011,-0.0047,-0.0056,-0.0087,-0.012,-0.0146,-0.0193,-0.0246,-0.0289,-0.031,-0.035,-0.0356,-0.0381,-0.036,-0.0354,-0.0349,-0.0325,-0.0365,-0.036,-0.0412,-0.0412,-0.0412,0,0,0.0004,-0.0014,-0.0013,-0.0016,-0.0027,-0.0006,-0.0061,-0.0058,-0.0054,-0.0145,-0.0162,-0.0223,-0.0286,-0.0311,-0.0325,-0.0339,-0.0347,-0.0347,-0.0342,-0.0321,-0.0363,-0.0358,-0.0353,-0.0411,-0.0412,-0.0412,0,0,0.0056,0.0033,0.005,0.005,0.0041,0.0018,0.0027,0.0007,-0.0018,-0.0036,-0.0106,-0.0162,-0.0211,-0.0264,-0.0296,-0.0273,-0.0314,-0.0284,-0.0223,-0.0263,-0.0258,-0.0255,-0.0276,-0.0275,-0.0281,-0.0281,-0.0281,0,0.008,0.0107,0.0061,0.0088,0.0099,0.0041,0.0087,0.006,0.0024,0.002,-0.0032,-0.0123,-0.0192,-0.0219,-0.0228,-0.0259,-0.0276,-0.0246,-0.0254,-0.0251,-0.0248,-0.0271,-0.0271,-0.0277,-0.0277,-0.0278,-0.0278,0,0.0155,0.0176,0.0197,0.0196,0.0197,0.0227,0.0204,0.0195,0.0148,0.0114,0.0076,-0.0026,-0.008,-0.0119,-0.0174,-0.0185,-0.02,-0.0242,-0.0268,-0.0238,-0.0264,-0.0265,-0.0272,-0.0273,-0.0274,-0.0275,0,0,0.0217,0.0244,0.0252,0.0281,0.0261,0.0283,0.0291,0.0293,0.0315,0.0231,0.025,0.0126,0.0062,0.0023,-0.0057,-0.0102,-0.0127,-0.0155,-0.0159,-0.0167,-0.0189,-0.024,-0.0247,-0.0165,-0.0165,-0.0165,-0.0211,0,0.0293,0.0378,0.0355,0.0432,0.0483,0.0436,0.0446,0.0427,0.0397,0.0397,0.0278,0.0252,0.0121,0.0096,0.0024,-0.0076,-0.0125,-0.0108,-0.0223,-0.0225,-0.0269,-0.0249,-0.0242,-0.0286,-0.0213,-0.0213,-0.0213,0,0.0377,0.0417,0.0514,0.0561,0.058,0.0595,0.062,0.0632,0.0598,0.0574,0.0514,0.0434,0.0346,0.0233,0.0064,0.0087,-0.004,-0.0132,-0.0137,-0.0207,-0.0279,-0.0306,-0.0292,-0.0216,-0.0216,-0.0216,-0.0216,0,0.0446,0.0534,0.0611,0.063,0.066,0.0684,0.0693,0.0679,0.0724,0.0703,0.0737,0.0594,0.0562,0.0372,0.0141,0.0118,-0.0032,-0.0094,-0.0258,-0.0263,-0.029,-0.0297,-0.0206,-0.0206,-0.0206,-0.0206,-0.0206,0,0.0528,0.0587,0.0654,0.0691,0.077,0.0768,0.0843,0.0838,0.0875,0.0957,0.0835,0.0873,0.0601,0.0471,0.0224,-0.0018,0.0018,-0.023,-0.0277,-0.0264,-0.0268,-0.0237,-0.024,-0.0208,-0.0207,-0.0207,-0.0207,0,0.0562,0.0612,0.0701,0.0771,0.0797,0.0849,0.094,0.102,0.1039,0.1158,0.1167,0.1102,0.0941,0.0651,0.0368,0.0124,-0.0129,-0.023,-0.019,-0.0233,-0.0347,-0.0345,-0.039,-0.0392,-0.0394,-0.0396,-0.0397,0,0.0561,0.0618,0.0752,0.0814,0.0839,0.093,0.1004,0.1069,0.1189,0.1301,0.1387,0.1295,0.1226,0.0788,0.0347,-0.0073,-0.0121,-0.0326,-0.0393,-0.0324,-0.0365,-0.0361,-0.0357,-0.0393,-0.0394,-0.0395,-0.0396,0,0.0543,0.0606,0.0695,0.0843,0.0944,0.1084,0.1218,0.1351,0.1472,0.1591,0.1714,0.167,0.1275,0.085,0.0284,-0.0011,-0.0268,-0.0359,-0.0288,-0.0355,-0.0333,-0.0372,-0.0366,-0.0404,-0.0404,-0.0403,-0.0403,-0.0402,0.0515,0.0589,0.0732,0.0876,0.1013,0.1227,0.1393,0.1571,0.1777,0.1974,0.1912,0.1851,0.1377,0.0643,0.0168,-0.0315,-0.0309,-0.0494,-0.0488,-0.0481,-0.0481,-0.0465,-0.0559,-0.0559,-0.0559,-0.0559,-0.0559,0,0.0507,0.0623,0.0754,0.0965,0.1152,0.1224,0.1538,0.1727,0.2008,0.209,0.2141,0.1676,0.1207,0.07,-0.0036,-0.0485,-0.0512,-0.0601,-0.0541,-0.0532,-0.0524,-0.0523,-0.0614,-0.0614,-0.0615,-0.0616,0,0,0.0506,0.0652,0.0758,0.1044,0.1209,0.1522,0.174,0.2005,0.2153,0.2195,0.2134,0.1963,0.134,0.0808,0.0201,-0.0192,-0.0249,-0.027,-0.0192,-0.0043,-0.0028,-0.0444,-0.0431,0,0,0,0,0]}],[{"header":{"parameterUnit":"m.s-1","parameterCategory":2,"la1":30.2991,"la2":30.254,"lo1":-89.0895,"lo2":-89.0444,"dy":0.0017,"dx":0.0017,"nx":28,"ny":28,"refTime":"2025-07-23T03:00:00:Z","depth":"4","parameterNumber":2,"parameterNumberName":"U-component_of_CURRENTS"},"data":[0,0,0,0,0,0,0,0,0,0,0,0,0,0,0,0,0,0,0,0,0,0,0,0,0,0,0,0,0,0,0,0,0,0,0,0,0,0,0,0,0,0,0,0,0,0,0,0,0,0,0,0,0,0,0,0,0,0,0.1342,0.1344,0,0.1439,0.144,0.144,0.1479,0.1479,0.148,0.148,0.1634,0.1638,0.1642,0,0,0,0,0,0,0,0,0,0,0,0,0,0.1208,0.121,0.1342,0.1344,0.1346,0.1439,0.144,0.144,0.1479,0.1479,0.148,0.148,0.1633,0.1637,0.1642,0,0,0,0,0,0,0,0,0,0,0,0,0,0.1275,0.121,0.1341,0.1381,0.1386,0.1439,0.144,0.144,0.1479,0.1479,0.148,0.148,0.1632,0.1637,0.1643,0.1664,0,0,0.166,0.1662,0,0,0,0,0,0,0,0,0.1271,0.1279,0.1374,0.1379,0.1385,0.1454,0.145,0.1521,0.1478,0.1436,0.148,0.1481,0.1584,0.1593,0.1599,0.1671,0.1678,0.166,0.1663,0.1666,0.1667,0,0,0,0,0,0,0,0.1266,0.1275,0.1373,0.1376,0.1383,0.1402,0.1411,0.1462,0.15,0.144,0.1445,0.1467,0.1586,0.1593,0.1603,0.168,0.166,0.1665,0.1668,0.167,0.1875,0.1877,0,0,0,0,0,0,0.1267,0.127,0.137,0.1377,0.1336,0.1404,0.1414,0.1425,0.1499,0.1512,0.1466,0.1468,0.1583,0.1596,0.1609,0.1727,0.1666,0.1671,0.1674,0.1873,0.1876,0.1878,0,0,0,0,0,0,0.1264,0.1275,0.1366,0.1332,0.1346,0.1406,0.1418,0.1427,0.1472,0.152,0.1533,0.1508,0.1584,0.1601,0.1683,0.173,0.1673,0.1679,0.187,0.1874,0.1877,0.1908,0,0,0,0,0,0,0.1259,0.1272,0.1286,0.1332,0.1348,0.142,0.1419,0.1429,0.1486,0.149,0.1559,0.1572,0.1586,0.1675,0.1689,0.1737,0.1683,0.1868,0.1872,0.1876,0.1904,0.1912,0.1918,0,0,0,0,0,0.1254,0.1273,0.1286,0.1299,0.1363,0.1422,0.1432,0.1471,0.1488,0.1512,0.156,0.1571,0.171,0.1681,0.1697,0.1748,0.1866,0.1871,0.1875,0.1901,0.191,0.1918,0,0,0,0,0,0,0.1238,0.1281,0.1295,0.1331,0.1384,0.1432,0.1469,0.1494,0.1548,0.1571,0.1598,0.1615,0.1707,0.1724,0.1692,0.1819,0.1791,0.1799,0.1805,0.1814,0.1821,0.1856,0.1687,0,0,0,0,0,0.1237,0.126,0.131,0.1349,0.1376,0.1427,0.1461,0.1497,0.155,0.1575,0.1626,0.1682,0.1732,0.177,0.1821,0.1891,0.1927,0.1935,0.1942,0.1948,0.1988,0.2061,0.2078,0.1893,0.1893,0.1893,0,0,0.1246,0.1276,0.1291,0.1347,0.1391,0.1435,0.1449,0.1524,0.1571,0.1587,0.1678,0.1719,0.1759,0.1834,0.1877,0.1858,0.2017,0.1954,0.1958,0.1997,0.2067,0.2085,0.2101,0.1896,0.1896,0.1895,0,0,0.1273,0.1302,0.1326,0.1374,0.1453,0.1476,0.1506,0.1581,0.1625,0.1704,0.1733,0.1808,0.1879,0.1924,0.1947,0.203,0.2055,0.2045,0.2109,0.2177,0.2193,0.2207,0.2262,0.2282,0.2043,0.2043,0.2043,0,0.1284,0.1314,0.1349,0.1398,0.1447,0.1496,0.1549,0.1594,0.1692,0.175,0.1743,0.1891,0.1922,0.2021,0.2046,0.2049,0.2088,0.2065,0.2186,0.2201,0.2215,0.2269,0.2289,0.2045,0.2045,0.2045,0.2044,0,0.1324,0.1363,0.1395,0.1451,0.1509,0.1569,0.164,0.1706,0.1757,0.1814,0.1945,0.199,0.2084,0.2093,0.2094,0.222,0.2215,0.2185,0.216,0.2236,0.2287,0.2308,0.2048,0.2047,0.2047,0.2046,0,0,0.1304,0.1394,0.1409,0.1449,0.1547,0.1598,0.1687,0.178,0.1854,0.1948,0.2056,0.2143,0.2202,0.2236,0.226,0.2316,0.2432,0.2303,0.2305,0.2352,0.259,0.2411,0.2416,0.2422,0.2426,0.2429,0.258,0,0.1322,0.1393,0.1448,0.1534,0.1574,0.1664,0.174,0.185,0.1928,0.2043,0.2136,0.2251,0.2243,0.2307,0.2366,0.2412,0.2494,0.2395,0.2518,0.2522,0.2348,0.2437,0.2443,0.2595,0.26,0.2604,0.2606,0,0.1335,0.1376,0.1457,0.1569,0.1602,0.1676,0.1817,0.1897,0.2061,0.2141,0.2279,0.2359,0.2495,0.2464,0.2613,0.255,0.2608,0.2629,0.2634,0.248,0.2383,0.251,0.2644,0.2641,0.2639,0.2636,0.2634,0,0.1279,0.1388,0.1446,0.149,0.1619,0.1704,0.1786,0.1945,0.2032,0.2236,0.2321,0.2485,0.2584,0.267,0.2732,0.2695,0.2868,0.2809,0.2718,0.2705,0.2806,0.2789,0.2965,0.2965,0.2965,0.2964,0.2964,0,0.1253,0.1302,0.1435,0.1467,0.1563,0.1695,0.1814,0.1929,0.2107,0.222,0.2387,0.2494,0.2646,0.2751,0.279,0.2807,0.2925,0.2768,0.2744,0.2812,0.2794,0.2819,0.28,0.297,0.2968,0.2967,0.2966,0,0.1172,0.1256,0.1325,0.1476,0.1536,0.1617,0.1807,0.1877,0.2075,0.2228,0.2315,0.2541,0.2682,0.2793,0.2939,0.2863,0.2905,0.2902,0.2989,0.2961,0.2688,0.2669,0.2805,0.28,0.2796,0.2792,0.279,0,0.1115,0.1147,0.1305,0.1355,0.1432,0.1561,0.1634,0.1842,0.1923,0.2227,0.2284,0.253,0.2657,0.2714,0.2836,0.2914,0.2896,0.2889,0.2782,0.2715,0.2679,0.2666,0.2653,0.2783,0.2782,0.2781,0.278,0,0.0999,0.1083,0.1138,0.1226,0.1322,0.1412,0.155,0.161,0.1854,0.2044,0.2235,0.2369,0.2528,0.2637,0.2728,0.2771,0.2853,0.2846,0.2854,0.2753,0.269,0.2655,0.2648,0.2766,0.2768,0.2769,0.277,0,0.0904,0.0926,0.1007,0.1085,0.1183,0.1256,0.1349,0.1482,0.1609,0.1964,0.2023,0.2292,0.251,0.2568,0.2639,0.267,0.2637,0.2534,0.2557,0.2574,0.2426,0.2307,0.2278,0,0,0,0,0,0.0785,0.0813,0.0859,0.0943,0.1028,0.1099,0.128,0.1384,0.163,0.1714,0.1881,0.2041,0.2218,0.2347,0.2341,0.2517,0.2616,0.2492,0.2499,0.2687,0.2704,0.2548,0,0,0,0,0,0,0.0719,0.0756,0.0797,0.0791,0.0832,0.0916,0.1037,0.1213,0.1281,0.1561,0.167,0.1886,0.2078,0.22,0.229,0.2327,0.2284,0.2658,0.2652,0.2678,0.2693,0.2706,0.2551,0,0,0,0,0]},{"header":{"parameterUnit":"m.s-1","parameterCategory":2,"la1":30.2991,"la2":30.254,"lo1":-89.0895,"lo2":-89.0444,"dy":0.0017,"dx":0.0017,"nx":28,"ny":28,"refTime":"2025-07-23T03:00:00:Z","depth":"4","parameterNumber":3,"parameterNumberName":"V-component_of_CURRENTS"},"data":[0,0,0,0,0,0,0,0,0,0,0,0,0,0,0,0,0,0,0,0,0,0,0,0,0,0,0,0,0,0,0,0,0,0,0,0,0,0,0,0,0,0,0,0,0,0,0,0,0,0,0,0,0,0,0,0,0,0,0.0236,0.0236,0,0.0172,0.0171,0.017,0.0131,0.0131,0.0131,0.0131,0.0,-0.0003,-0.0007,0,0,0,0,0,0,0,0,0,0,0,0,0,0.0264,0.0264,0.0236,0.0236,0.0235,0.0172,0.0171,0.017,0.0131,0.0131,0.0131,0.0131,0.0001,-0.0003,-0.0007,0,0,0,0,0,0,0,0,0,0,0,0,0,0.0229,0.0263,0.0236,0.021,0.0207,0.0172,0.0171,0.017,0.0131,0.0131,0.0131,0.0131,0.0003,-0.0002,-0.0008,-0.004,0,0,-0.0024,-0.0026,0,0,0,0,0,0,0,0,0.0231,0.0228,0.0214,0.0211,0.0208,0.0161,0.0133,0.0097,0.0131,0.0157,0.0131,0.0131,0.0049,0.004,0.0026,-0.0046,-0.0052,-0.0024,-0.0027,-0.0029,-0.0031,0,0,0,0,0,0,0,0.0234,0.023,0.0208,0.0213,0.021,0.018,0.0175,0.0126,0.0101,0.0155,0.0153,0.0149,0.0047,0.0031,0.0022,-0.0054,-0.0024,-0.0028,-0.0032,-0.0034,-0.0154,-0.0154,0,0,0,0,0,0,0.0249,0.0233,0.0211,0.0207,0.0222,0.018,0.0175,0.0175,0.0103,0.0093,0.0149,0.0147,0.004,0.0029,0.0018,-0.0006,-0.0029,-0.0034,-0.0037,-0.0154,-0.0154,-0.0154,0,0,0,0,0,0,0.025,0.0248,0.0213,0.022,0.0213,0.018,0.018,0.0173,0.0162,0.01,0.0088,0.0146,0.004,0.0025,-0.002,-0.0012,-0.0037,-0.0041,-0.0154,-0.0154,-0.0154,-0.0066,0,0,0,0,0,0,0.0251,0.0249,0.026,0.0221,0.0214,0.02,0.018,0.0172,0.0161,0.0158,0.0092,0.008,0.0039,-0.0012,-0.0025,-0.002,-0.0045,-0.0154,-0.0154,-0.0154,-0.0069,-0.0064,-0.0059,0,0,0,0,0,0.0252,0.0265,0.0261,0.0259,0.0229,0.02,0.0194,0.0168,0.0161,0.0157,0.0115,0.0083,-0.0022,-0.0016,-0.0032,-0.0028,-0.0154,-0.0154,-0.0154,-0.0072,-0.0065,-0.0059,0,0,0,0,0,0,0.0273,0.0262,0.0256,0.0263,0.0239,0.0195,0.0192,0.0174,0.0138,0.0138,0.0078,0.0063,0.0024,-0.0016,-0.0008,-0.0064,-0.0093,-0.0096,-0.0024,-0.0019,-0.0013,-0.0,-0.005,0,0,0,0,0,0.0287,0.03,0.0271,0.0276,0.0268,0.0233,0.0221,0.0203,0.0166,0.0151,0.0106,0.0057,0.001,-0.0013,-0.0063,-0.0094,-0.0149,-0.0102,-0.0096,-0.0092,-0.0092,-0.0172,-0.0174,-0.0155,-0.0155,-0.0155,0,0,0.0294,0.0291,0.0297,0.0283,0.0262,0.026,0.0225,0.0211,0.0211,0.014,0.0124,0.0069,0.0004,-0.0029,-0.0049,-0.0059,-0.0124,-0.0092,-0.0087,-0.0091,-0.0173,-0.0175,-0.0177,-0.0155,-0.0155,-0.0155,0,0,0.0315,0.0313,0.0332,0.0321,0.0305,0.0283,0.0283,0.0246,0.0233,0.0206,0.0156,0.0108,0.0042,-0.0002,-0.0033,-0.0032,-0.0097,-0.0044,-0.0003,-0.008,-0.0082,-0.0084,-0.0145,-0.0154,-0.0036,-0.0036,-0.0036,0,0.0325,0.0348,0.0329,0.0342,0.0343,0.0299,0.0313,0.029,0.0244,0.0232,0.0213,0.0107,0.0055,0.0007,0.0012,-0.0019,-0.007,-0.0016,-0.0072,-0.0076,-0.008,-0.0142,-0.0153,-0.0032,-0.0032,-0.0033,-0.0033,0,0.0361,0.0379,0.0385,0.0397,0.0392,0.0392,0.0367,0.0355,0.0332,0.0302,0.025,0.0171,0.011,0.0087,0.005,-0.0,-0.0028,-0.0058,-0.0083,-0.0076,-0.0142,-0.0155,-0.0026,-0.0027,-0.0029,-0.003,0,0,0.0377,0.0408,0.0411,0.0436,0.0425,0.0426,0.0426,0.0409,0.041,0.035,0.0332,0.0248,0.0199,0.0159,0.01,0.0036,-0.0032,-0.0013,-0.0019,-0.0064,-0.0195,-0.0184,-0.0198,-0.0072,-0.0074,-0.0075,-0.0225,0,0.0409,0.0461,0.0463,0.0504,0.0527,0.0501,0.0508,0.0488,0.0453,0.042,0.0332,0.0289,0.023,0.0202,0.0127,-0.0003,-0.0064,0.0012,-0.0204,-0.021,-0.0194,-0.0212,-0.0082,-0.0235,-0.0238,-0.024,-0.0241,0,0.0446,0.0479,0.0536,0.0576,0.0582,0.0603,0.0609,0.0604,0.0546,0.052,0.045,0.0373,0.027,0.0223,0.0009,0.0059,-0.0054,-0.0152,-0.0161,-0.0192,-0.0223,-0.0249,-0.0266,-0.0264,-0.0262,-0.026,-0.0259,0,0.0481,0.0531,0.0586,0.0599,0.0629,0.0656,0.0666,0.0637,0.0643,0.0579,0.0564,0.0424,0.0351,0.0183,-0.0013,-0.0009,-0.0251,-0.0275,-0.037,-0.0371,-0.0374,-0.037,-0.0417,-0.0416,-0.0416,-0.0416,-0.0415,0,0.0519,0.0559,0.0617,0.0646,0.0711,0.0714,0.0758,0.0747,0.0728,0.073,0.0619,0.0576,0.0336,0.0172,-0.0004,-0.0227,-0.0249,-0.0371,-0.0413,-0.0332,-0.0321,-0.0383,-0.0377,-0.0421,-0.042,-0.0419,-0.0418,0,0.0541,0.0578,0.0643,0.0703,0.0733,0.0776,0.0837,0.0858,0.0838,0.0833,0.0819,0.0668,0.0452,0.0216,-0.0073,-0.0207,-0.0423,-0.0487,-0.0372,-0.0405,-0.0494,-0.0481,-0.0622,-0.0623,-0.0624,-0.0625,-0.0625,0,0.055,0.0588,0.0688,0.0732,0.0768,0.0838,0.0886,0.0912,0.0933,0.0887,0.088,0.0696,0.0567,0.0175,-0.008,-0.0418,-0.0455,-0.0558,-0.0537,-0.049,-0.0518,-0.0504,-0.0491,-0.0626,-0.0627,-0.0627,-0.0627,0,0.0549,0.0594,0.065,0.0756,0.0832,0.0913,0.0984,0.1019,0.1031,0.1018,0.0931,0.0737,0.0491,0.0181,-0.0076,-0.0316,-0.0495,-0.0568,-0.0568,-0.0549,-0.0497,-0.052,-0.0507,-0.063,-0.0629,-0.0629,-0.0629,0,0.0543,0.0582,0.0669,0.0765,0.0862,0.0961,0.1002,0.1034,0.1063,0.1026,0.0989,0.0745,0.0594,0.0233,-0.0008,-0.0244,-0.0307,-0.037,-0.0381,-0.0381,-0.0265,-0.0161,-0.0233,0,0,0,0,0,0.0534,0.059,0.0667,0.0784,0.0884,0.0953,0.105,0.108,0.1109,0.1065,0.1037,0.082,0.046,0.0292,0.0057,-0.0046,-0.0362,-0.0329,-0.0443,-0.0645,-0.0642,-0.0546,0,0,0,0,0,0,0.053,0.0605,0.0663,0.0786,0.0865,0.0985,0.1057,0.1079,0.1052,0.1042,0.0849,0.0766,0.0404,0.0591,0.0051,-0.0023,-0.0124,-0.05,-0.0505,-0.0647,-0.0644,-0.0642,-0.0541,0,0,0,0,0]}]]